Zurück zum Katalog

OPS 9315

IDSCS 5

AktivMilitärMEO
NORAD 2219·PAYLOAD·🇺🇸 United States

Gestartet Jun 16, 1966 von Cape Canaveral Space Force Station

Loading…

Nächste Überflüge (nächste 24 Stunden)

TLE

AlterndSource: Space-Track

Epoche: Aug 24, 2026, 15:31 UTC

1 02219U 66053F   26236.64693466 -.00000080  00000-0  00000-0 0  9996
2 02219   8.6856  44.6249 0053624 192.2768 167.7220  1.07398361 57266

Verfolge OPS 9315 in Echtzeit mit AllMySat

Download on the App Store